DW4764 Weather Reports


time (UTC)temp
C
wind
direction
speed
KPH
gust
KPH
rain 1hr
cm
rain 24hr
cm
rain mn
cm
humidity
%
barometer
mb
20260906214550 26 146 16.1 35.4 0.00 0.00 0.00 25 1003.6
20260906213049 27 185 22.5 33.8 0.00 0.00 0.00 25 1003.9
20260906211553 27 219 20.9 37.0 0.00 0.00 0.00 24 1003.8
20260906210048 27 215 19.3 29.0 0.00 0.00 0.00 23 1003.9
20260906204543 27 202 17.7 32.2 0.00 0.00 0.00 21 1004.2
20260906203042 27 158 14.5 37.0 0.00 0.00 0.00 24 1004.3
20260906201541 27 181 12.9 20.9 0.00 0.00 0.00 25 1004.5
20260906200037 27 198 14.5 27.4 0.00 0.00 0.00 22 1004.8
20260906194535 27 108 12.9 27.4 0.00 0.00 0.00 22 1005.0
20260906193033 27 131 14.5 20.9 0.00 0.00 0.00 23 1005.1
20260906191530 26 133 16.1 27.4 0.00 0.00 0.00 23 1005.3
20260906190029 26 101 16.1 29.0 0.00 0.00 0.00 21 1005.6
20260906184527 26 92 14.5 29.0 0.00 0.00 0.00 24 1006.0
20260906183043 26 143 12.9 20.9 0.00 0.00 0.00 23 1006.2
20260906181524 26 146 14.5 27.4 0.00 0.00 0.00 23 1006.6
20260906180023 26 205 12.9 20.9 0.00 0.00 0.00 24 1006.8
20260906174522 26 181 9.7 27.4 0.00 0.00 0.00 23 1007.0
20260906173021 26 221 11.3 24.1 0.00 0.00 0.00 23 1007.2
20260906171521 26 213 9.7 16.1 0.00 0.00 0.00 24 1007.4
20260906170021 25 90 9.7 19.3 0.00 0.00 0.00 25 1007.6
20260906164516 25 139 6.4 17.7 0.00 0.00 0.00 25 1007.7
20260906163014 24 81 4.8 16.1 0.00 0.00 0.00 27 1007.9
20260906161512 23 122 3.2 16.1 0.00 0.00 0.00 25 1007.9
20260906160016 23 12 4.8 14.5 0.00 0.00 0.00 30 1007.8
20260906154505 22 34 6.4 11.3 0.00 0.00 0.00 31 1007.7
20260906153003 21 359 6.4 11.3 0.00 0.00 0.00 34 1007.8
20260906151601 20 53 4.8 11.3 0.00 0.00 0.00 36 1007.9
20260906144603 19 350 4.8 9.7 0.00 0.00 0.00 39 1008.0
20260906143054 18 62 4.8 12.9 0.00 0.00 0.00 41 1008.0
20260906141551 18 8 6.4 11.3 0.00 0.00 0.00 39 1007.9
20260906140047 18 63 6.4 8.0 0.00 0.00 0.00 41 1007.9
20260906134549 17 28 1.6 4.8 0.00 0.00 0.00 41 1007.8
20260906133046 16 67 0.0 0.0 0.00 0.00 0.00 44 1007.7
20260906131541 16 24 0.0 3.2 0.00 0.00 0.00 45 1007.5
20260906130044 15 10 0.0 1.6 0.00 0.00 0.00 46 1007.5
20260906124540 14 347 0.0 0.0 0.00 0.00 0.00 49 1007.6
20260906123041 13 1 0.0 1.6 0.00 0.00 0.00 50 1007.4
20260906121542 14 31 0.0 3.2 0.00 0.00 0.00 50 1007.3
20260906120035 13 349 0.0 0.0 0.00 0.00 0.00 51 1007.2
20260906114541 13 350 0.0 3.2 0.00 0.00 0.00 51 1007.1
20260906113044 13 198 0.0 0.0 0.00 0.00 0.00 54 1007.2
20260906111531 13 255 0.0 0.0 0.00 0.00 0.00 52 1006.9
20260906110030 13 255 0.0 0.0 0.00 0.00 0.00 52 1006.8
20260906104531 14 255 0.0 0.0 0.00 0.00 0.00 52 1006.7
20260906103030 14 255 0.0 0.0 0.00 0.00 0.00 51 1006.8
20260906101529 15 255 0.0 0.0 0.00 0.00 0.00 50 1006.8
20260906100027 15 255 0.0 1.6 0.00 0.00 0.00 51 1006.8
20260906094525 13 221 1.6 6.4 0.00 0.00 0.00 58 1007.1
20260906093022 15 249 0.0 0.0 0.00 0.00 0.00 55 1006.9
20260906091531 15 198 0.0 0.0 0.00 0.00 0.00 55 1006.8
20260906090019 15 198 0.0 0.0 0.00 0.00 0.00 54 1006.5
20260906084517 15 198 0.0 0.0 0.00 0.00 0.00 54 1006.6
20260906083015 16 207 0.0 0.0 0.00 0.00 0.00 52 1006.5
20260906081515 16 205 0.0 1.6 0.00 0.00 0.00 53 1006.4
20260906080010 17 329 0.0 1.6 0.00 0.00 0.00 48 1006.3
20260906074518 17 314 0.0 1.6 0.00 0.00 0.00 50 1006.3
20260906073007 16 238 0.0 0.0 0.00 0.00 0.00 53 1006.6
20260906071507 16 214 0.0 0.0 0.00 0.00 0.00 55 1006.7
20260906070006 17 127 0.0 1.6 0.00 0.00 0.00 54 1006.6
20260906064506 17 297 1.6 4.8 0.00 0.00 0.00 54 1006.7
20260906063002 16 210 1.6 4.8 0.00 0.00 0.00 58 1006.9
20260906061609 16 189 0.0 4.8 0.00 0.00 0.00 57 1006.7
20260906060056 17 321 0.0 9.7 0.00 0.00 0.00 55 1006.4
20260906054558 17 339 1.6 3.2 0.00 0.00 0.00 54 1006.3
20260906053055 18 232 1.6 6.4 0.00 0.00 0.00 52 1006.1
20260906051602 18 215 3.2 8.0 0.00 0.00 0.00 52 1006.1
20260906050055 18 201 3.2 8.0 0.00 0.00 0.00 52 1006.2
20260906044554 18 206 3.2 6.4 0.00 0.00 0.00 53 1006.3
20260906043053 18 203 3.2 8.0 0.00 0.00 0.00 52 1006.4
20260906041552 18 214 3.2 9.7 0.00 0.00 0.00 51 1006.4
20260906040051 19 205 4.8 8.0 0.00 0.00 0.00 50 1006.4
20260906034551 20 204 4.8 11.3 0.00 0.00 0.00 49 1006.5
20260906033052 20 199 8.0 16.1 0.00 0.00 0.00 48 1006.5
20260906031559 20 210 6.4 11.3 0.00 0.00 0.00 48 1006.3
20260906030048 20 184 6.4 12.9 0.00 0.00 0.00 48 1006.1
20260906024548 20 125 4.8 14.5 0.00 0.00 0.00 48 1006.0
20260906023050 20 113 9.7 19.3 0.00 0.00 0.00 39 1006.1
20260906021548 20 240 0.0 0.0 0.00 0.00 0.00 26 1005.6
20260906020049 21 240 0.0 0.0 0.00 0.00 0.00 25 1005.4
20260906014546 21 236 0.0 0.0 0.00 0.00 0.00 25 1005.1
20260906013045 22 92 0.0 1.6 0.00 0.00 0.00 24 1005.1
20260906011545 23 69 0.0 1.6 0.00 0.00 0.00 24 1005.2
20260906010043 24 79 0.0 3.2 0.00 0.00 0.00 20 1005.3
20260906004542 24 256 3.2 6.4 0.00 0.00 0.00 20 1005.4
20260906003042 24 276 3.2 8.0 0.00 0.00 0.00 20 1005.6
20260906001540 24 248 1.6 11.3 0.00 0.00 0.00 21 1005.6
20260906000039 24 5 0.0 3.2 0.00 0.00 0.00 22 1005.5
20260905234542 24 326 0.0 3.2 0.00 0.00 0.00 21 1005.2
20260905233043 24 246 1.6 9.7 0.00 0.00 0.00 21 1005.1
20260905231537 25 240 1.6 6.4 0.00 0.00 0.00 16 1004.9
20260905230045 26 201 1.6 4.8 0.00 0.00 0.00 17 1004.8
20260905224549 25 150 1.6 8.0 0.00 0.00 0.00 19 1004.9
20260905223033 25 210 3.2 12.9 0.00 0.00 0.00 20 1005.2
20260905221534 25 259 0.0 17.7 0.00 0.00 0.00 19 1005.5
20260905220038 25 174 6.4 12.9 0.00 0.00 0.00 19 1005.4